Visibility
15.0 9.5 15.0 15.0 4.9 15.0 15.0 15.0 14.4 15.0 15.0 10.5 15.0 2.6 3.4 13.5 15.0 15.0 15.0 15.0 15.0 15.0
8.8 14.0 14.9 7.0 3.0 5.0 15.0 15.0 15.0 9.4 15.0 9.6 15.0 10.4 8.4 15.0 15.0 15.0 15.0 15.0 15.0 15.0
13.0 10.2 8.6 7.3 10.3 6.0 7.8 3.5 4.3 5.5 14.4 15.0 15.0 14.1 13.4 13.3 15.0 15.0 15.0 15.0 15.0 15.0
15.0 4.1 4.4 2.3 5.6 6.4 5.1 3.7 4.8 4.5 5.0 15.0 10.8 14.0 15.0 15.0 15.0 15.0 15.0 15.0 15.0 15.0
8.1 5.8 3.9 3.7 3.0 5.1 4.1 6.1 11.0 5.9 9.1 14.9 14.2 15.0 15.0 15.0 15.0 15.0 15.0 15.0 15.0 15.0
0.3 3.6 6.0 4.8 3.7 6.0 13.1 14.5 11.3 15.0 13.4 9.8 8.7 9.8 15.0 14.1 15.0 15.0 15.0 15.0 15.0 15.0
0.1 4.6 4.1 5.9 7.0 7.1 5.0 4.6 5.6 7.8 7.9 6.5 9.3 11.7 15.0 15.0 15.0 15.0 15.0 15.0 15.0 15.0
0.1 1.0 0.8 1.9 4.0 3.8 3.5 3.6 6.8 5.8 7.5 8.0 6.0 13.9 15.0 15.0 15.0 15.0 15.0 15.0 15.0 15.0
0.1 0.1 0.1 0.6 1.1 4.1 3.8 6.0 5.8 5.5 5.3 13.0 12.0 13.9 15.0 15.0 15.0 15.0 15.0 15.0 15.0 15.0
4.9 0.1 0.1 0.1 0.9 0.3 0.4 4.9 8.2 8.7 7.8 6.0 7.8 14.2 15.0 14.0 10.3 9.4 10.4 11.1 15.0 15.0
13.4 10.0 2.8 2.9 0.2 0.1 0.2 0.4 0.6 2.0 12.1 15.0 10.7 10.7 5.5 5.6 6.0 5.4 6.0 7.6 9.3 10.5
15.0 15.0 15.0 15.0 14.8 12.5 1.4 0.2 0.1 0.1 0.1 0.1 0.1 0.3 0.4 0.3 0.2 0.1 0.1 0.4 4.5 7.7
15.0 15.0 15.0 15.0 15.0 15.0 15.0 15.0 15.0 7.3 4.6 3.3 0.2 4.8 5.0 5.0 7.4 1.7 0.6 11.9 5.1 9.3
15.0 15.0 15.0 15.0 15.0 15.0 15.0 15.0 15.0 15.0 15.0 15.0 10.2 9.4 8.2 7.0 8.0 14.3 7.3 10.5 10.5 12.5